LKPR Weather Reports


time (UTC)temp
F
wind
direction
speed
knots
gust
knots
rain 1hr
in
rain 24hr
in
rain mn
in
humidity
%
barometer
mb
20260507073202 55 250 13.9 0.0 0.00 0.00 0.00 82 1010.0
20260507071804 55 240 12.2 0.0 0.00 0.00 0.00 76
20260507070203 55 230 12.2 0.0 0.00 0.00 0.00 82 1010.0
20260507064504 55 230 13.0 0.0 0.00 0.00 0.00 82 1010.0
20260507063203 55 220 12.2 0.0 0.00 0.00 0.00 82 1009.0
20260507061801 54 230 7.8 0.0 0.00 0.00 0.00 87
20260507061303 55 230 8.7 0.0 0.00 0.00 0.00 87 1009.0
20260507060203 54 230 8.7 0.0 0.00 0.00 0.00 93 1009.0
20260507053203 54 230 8.7 0.0 0.00 0.00 0.00 87 1009.0
20260507051801 52 230 12.2 0.0 0.00 0.00 0.00 87
20260507050203 52 230 7.8 0.0 0.00 0.00 0.00 93 1009.0
20260507043203 52 280 4.3 0.0 0.00 0.00 0.00 93 1008.0
20260507042024 50 230 6.1 0.0 0.00 0.00 0.00 93
20260507040203 50 240 8.7 0.0 0.00 0.00 0.00 93 1008.0
20260507033203 50 260 7.8 0.0 0.00 0.00 0.00 93 1008.0
20260507031802 50 250 6.1 0.0 0.00 0.00 0.00 93
20260507030202 50 260 2.6 0.0 0.00 0.00 0.00 93 1008.0
20260507023202 50 240 6.1 0.0 0.00 0.00 0.00 100 1008.0
20260507021800 50 170 4.3 0.0 0.00 0.00 0.00 93
20260507020202 50 170 2.6 0.0 0.00 0.00 0.00 100 1008.0
20260507013202 52 240 7.8 0.0 0.00 0.00 0.00 93 1007.0
20260507011902 54 200 6.1 0.0 0.00 0.00 0.00 93
20260507010202 54 210 5.2 0.0 0.00 0.00 0.00 93 1007.0
20260507003202 54 230 7.0 0.0 0.00 0.00 0.00 93 1007.0
20260507001802 54 240 6.1 0.0 0.00 0.00 0.00 99
20260507000205 54 250 7.8 0.0 0.00 0.00 0.00 100 1007.0
20260506233203 54 200 4.3 0.0 0.00 0.00 0.00 100 1007.0
20260506231803 54 180 4.3 0.0 0.00 0.00 0.00 99
20260506230202 55 190 4.3 0.0 0.00 0.00 0.00 93 1006.0
20260506223202 55 230 5.2 0.0 0.00 0.00 0.00 93 1007.0
20260506222002 54 230 6.1 0.0 0.00 0.00 0.00 93
20260506220203 54 220 4.3 0.0 0.00 0.00 0.00 100 1007.0
20260506213203 54 150 6.1 0.0 0.00 0.00 0.00 93 1006.0
20260506211802 54 150 7.8 0.0 0.00 0.00 0.00 93
20260506210203 54 150 10.4 0.0 0.00 0.00 0.00 100 1006.0
20260506204103 54 200 7.0 0.0 0.00 0.00 0.00 100 1006.0
20260506203201 55 200 7.0 0.0 0.00 0.00 0.00 87 1006.0
20260506202403 55 210 11.3 0.0 0.00 0.00 0.00 93 1006.0
20260506201818 55 120 4.3 0.0 0.00 0.00 0.00 87
20260506201503 55 220 11.3 0.0 0.00 0.00 0.00 87 1006.0
20260506200203 55 120 5.2 0.0 0.00 0.00 0.00 87 1005.0
20260506195004 55 80 5.2 0.0 0.00 0.00 0.00 93 1005.0
20260506193203 57 90 5.2 0.0 0.00 0.00 0.00 87 1005.0
20260506191850 57 360 4.3 0.0 0.00 0.00 0.00 87
20260506190202 55 350 6.1 0.0 0.00 0.00 0.00 93 1005.0
20260506184603 55 350 5.2 0.0 0.00 0.00 0.00 93 1005.0
20260506184103 55 320 5.2 0.0 0.00 0.00 0.00 93 1005.0
20260506183803 57 290 4.3 0.0 0.00 0.00 0.00 87 1005.0
20260506183203 57 0 1.7 0.0 0.00 0.00 0.00 87 1005.0
20260506182902 59 0 2.6 0.0 0.00 0.00 0.00 82 1005.0
20260506182703 59 0 4.3 0.0 0.00 0.00 0.00 82 1005.0
20260506181835 59 90 4.3 0.0 0.00 0.00 0.00 77
20260506181808 59 360 4.3 0.0 0.00 0.00 0.00 77 1004.0
20260506180903 59 0 2.6 0.0 0.00 0.00 0.00 82 1004.0
20260506180203 59 80 4.3 0.0 0.00 0.00 0.00 77 1004.0
20260506174503 59 70 5.2 0.0 0.00 0.00 0.00 82 1004.0
20260506173203 61 80 5.2 0.0 0.00 0.00 0.00 72 1004.0
20260506171801 59 250 1.7 0.0 0.00 0.00 0.00 82
20260506170203 61 0 1.7 0.0 0.00 0.00 0.00 82 1004.0
20260506163202 61 300 5.2 0.0 0.00 0.00 0.00 72 1004.0
20260506162002 61 310 4.3 0.0 0.00 0.00 0.00 72
20260506160203 61 300 7.0 0.0 0.00 0.00 0.00 72 1004.0
20260506153203 61 250 8.7 0.0 0.00 0.00 0.00 67 1005.0
20260506151818 61 230 1.7 0.0 0.00 0.00 0.00 67
20260506150202 61 280 7.0 0.0 0.00 0.00 0.00 72 1005.0
20260506145305 61 280 7.8 0.0 0.00 0.00 0.00 72 1005.0
20260506144003 61 190 7.8 0.0 0.00 0.00 0.00 72 1005.0
20260506143203 63 190 7.0 17.4 0.00 0.00 0.00 67 1005.0
20260506141818 66 270 1.7 0.0 0.00 0.00 0.00 55
20260506140203 66 0 1.7 0.0 0.00 0.00 0.00 59 1005.0
20260506134802 66 0 1.7 0.0 0.00 0.00 0.00 52 1005.0
20260506133203 68 160 2.6 0.0 0.00 0.00 0.00 49 1005.0
20260506131818 68 210 1.7 0.0 0.00 0.00 0.00 49
20260506130203 68 200 4.3 0.0 0.00 0.00 0.00 52 1006.0
20260506123202 68 220 6.1 0.0 0.00 0.00 0.00 56 1006.0
20260506121818 66 260 6.1 0.0 0.00 0.00 0.00 59
20260506120203 68 0 4.3 0.0 0.00 0.00 0.00 56 1006.0
20260506113202 64 230 7.0 0.0 0.00 0.00 0.00 59 1006.0
20260506111804 64 210 6.1 0.0 0.00 0.00 0.00 63
20260506110203 64 200 8.7 0.0 0.00 0.00 0.00 63 1007.0
20260506103202 64 220 8.7 0.0 0.00 0.00 0.00 67 1007.0
20260506102017 63 230 10.4 0.0 0.00 0.00 0.00 63
20260506100203 63 230 10.4 0.0 0.00 0.00 0.00 63 1007.0
20260506093203 63 230 10.4 0.0 0.00 0.00 0.00 67 1007.0
20260506091804 61 220 12.2 0.0 0.00 0.00 0.00 63
20260506090203 61 230 10.4 0.0 0.00 0.00 0.00 67 1007.0
20260506083202 59 240 12.2 0.0 0.00 0.00 0.00 72 1007.0
20260506081802 59 230 12.2 0.0 0.00 0.00 0.00 77
20260506080203 59 230 10.4 0.0 0.00 0.00 0.00 77 1007.0